Year,Month,Day,Hour,Minute,Value (Times are PST for temperature in C)
2020,08,14,14,44,24.90
2020,08,14,14,45,24.90
2020,08,14,14,46,25.00
2020,08,14,14,47,25.00
2020,08,14,14,48,25.10
2020,08,14,14,49,25.10
2020,08,14,14,50,25.10
2020,08,14,14,51,25.10
2020,08,14,14,52,25.10
2020,08,14,14,53,25.10
2020,08,14,14,54,25.10
2020,08,14,14,55,25.10
2020,08,14,14,56,25.10
2020,08,14,14,57,25.10
2020,08,14,14,58,25.00
2020,08,14,14,59,25.00
2020,08,14,15,00,25.00
2020,08,14,15,01,25.00
2020,08,14,15,02,25.10
2020,08,14,15,03,25.10
2020,08,14,15,04,25.10
2020,08,14,15,05,25.10
2020,08,14,15,06,25.00
2020,08,14,15,07,25.00
2020,08,14,15,08,25.00
2020,08,14,15,09,24.90
2020,08,14,15,10,24.90
2020,08,14,15,11,24.80
2020,08,14,15,12,24.80
2020,08,14,15,13,24.80
2020,08,14,15,14,24.70
2020,08,14,15,15,24.70
2020,08,14,15,16,24.70
2020,08,14,15,17,24.80
2020,08,14,15,18,24.80
2020,08,14,15,19,24.90
2020,08,14,15,20,25.00
2020,08,14,15,21,25.00
2020,08,14,15,22,25.10
2020,08,14,15,23,25.10
2020,08,14,15,24,25.10
2020,08,14,15,25,25.10
2020,08,14,15,26,25.20
2020,08,14,15,27,25.20
2020,08,14,15,28,25.20
2020,08,14,15,29,25.20
2020,08,14,15,30,25.20
2020,08,14,15,31,25.20
2020,08,14,15,32,25.20
2020,08,14,15,33,25.20
2020,08,14,15,34,25.20
2020,08,14,15,35,25.20
2020,08,14,15,36,25.30
2020,08,14,15,37,25.30
2020,08,14,15,38,25.30
2020,08,14,15,39,25.30
2020,08,14,15,40,25.30
2020,08,14,15,41,25.40
2020,08,14,15,42,25.40
2020,08,14,15,43,25.50
2020,08,14,15,44,25.50
2020,08,14,15,45,25.50
2020,08,14,15,46,25.50
2020,08,14,15,47,25.50
2020,08,14,15,48,25.40
2020,08,14,15,49,25.40
2020,08,14,15,50,25.40
2020,08,14,15,51,25.30
2020,08,14,15,52,25.40
2020,08,14,15,53,25.40
2020,08,14,15,54,25.40
2020,08,14,15,55,25.40
2020,08,14,15,56,25.40
2020,08,14,15,57,25.40
2020,08,14,15,58,25.50
2020,08,14,15,59,25.60
2020,08,14,16,00,25.60
2020,08,14,16,01,25.60
2020,08,14,16,02,25.60
2020,08,14,16,03,25.60
2020,08,14,16,04,25.60
2020,08,14,16,05,25.60
2020,08,14,16,06,25.60
2020,08,14,16,07,25.70
2020,08,14,16,08,25.70
2020,08,14,16,09,25.70
2020,08,14,16,10,25.70
2020,08,14,16,11,25.70
2020,08,14,16,12,25.70
2020,08,14,16,13,25.70
2020,08,14,16,14,25.70
2020,08,14,16,15,25.70
2020,08,14,16,16,25.60
2020,08,14,16,17,25.50
2020,08,14,16,18,25.40
2020,08,14,16,19,25.40
2020,08,14,16,20,25.30
2020,08,14,16,21,25.30
2020,08,14,16,22,25.30
2020,08,14,16,23,25.30
2020,08,14,16,24,25.30
2020,08,14,16,25,25.30
2020,08,14,16,26,25.20
2020,08,14,16,27,25.20
2020,08,14,16,28,25.20
2020,08,14,16,29,25.20
2020,08,14,16,30,25.20
2020,08,14,16,31,25.20
2020,08,14,16,32,25.20
2020,08,14,16,33,25.20
2020,08,14,16,34,25.10
2020,08,14,16,35,25.00
2020,08,14,16,36,25.00
2020,08,14,16,37,24.90
2020,08,14,16,38,24.90
2020,08,14,16,39,24.90
2020,08,14,16,40,24.90
2020,08,14,16,41,24.80
2020,08,14,16,42,24.80
2020,08,14,16,43,24.80
2020,08,14,16,44,24.90
2020,08,14,16,45,24.90
2020,08,14,16,46,24.90
2020,08,14,16,47,24.90
2020,08,14,16,48,24.90
2020,08,14,16,49,25.00
2020,08,14,16,50,25.00
2020,08,14,16,51,25.10
2020,08,14,16,52,25.20
2020,08,14,16,53,25.20
2020,08,14,16,54,25.20
2020,08,14,16,55,25.30
2020,08,14,16,56,25.30
2020,08,14,16,57,25.30
2020,08,14,16,58,25.30
2020,08,14,16,59,25.30
2020,08,14,17,00,25.30
2020,08,14,17,01,25.30
2020,08,14,17,02,25.20
2020,08,14,17,03,25.20
2020,08,14,17,04,25.20
2020,08,14,17,05,25.20
2020,08,14,17,06,25.10
2020,08,14,17,07,25.10
2020,08,14,17,08,25.10
2020,08,14,17,09,25.10
2020,08,14,17,10,25.10
2020,08,14,17,11,25.00
2020,08,14,17,12,25.00
2020,08,14,17,13,24.90
2020,08,14,17,14,24.90
2020,08,14,17,15,24.90
2020,08,14,17,16,24.90
2020,08,14,17,17,24.90
2020,08,14,17,18,24.90
2020,08,14,17,19,24.90
2020,08,14,17,20,24.90
2020,08,14,17,21,24.90
2020,08,14,17,22,24.90
2020,08,14,17,23,24.90
2020,08,14,17,24,24.90
2020,08,14,17,25,24.90
2020,08,14,17,26,24.90
2020,08,14,17,27,24.90
2020,08,14,17,28,24.90
2020,08,14,17,29,24.90
2020,08,14,17,30,24.90
2020,08,14,17,31,25.00
2020,08,14,17,32,25.00
2020,08,14,17,33,25.00
2020,08,14,17,34,25.00
2020,08,14,17,35,25.00
2020,08,14,17,36,25.00
2020,08,14,17,37,24.90
2020,08,14,17,38,24.90
2020,08,14,17,39,24.90
2020,08,14,17,40,24.90
2020,08,14,17,41,24.90
2020,08,14,17,42,24.90
2020,08,14,17,43,24.80
2020,08,14,17,44,24.80
2020,08,14,17,45,24.70
2020,08,14,17,46,24.80
2020,08,14,17,47,24.70
2020,08,14,17,48,24.80
2020,08,14,17,49,24.80
2020,08,14,17,50,24.80
2020,08,14,17,51,24.80
2020,08,14,17,52,24.70
2020,08,14,17,53,24.70
2020,08,14,17,54,24.70
2020,08,14,17,55,24.80
2020,08,14,17,56,24.80
2020,08,14,17,57,24.80
2020,08,14,17,58,24.80
2020,08,14,17,59,24.70
2020,08,14,18,00,24.70
2020,08,14,18,01,24.70
2020,08,14,18,02,24.70
2020,08,14,18,03,24.70
2020,08,14,18,04,24.70
2020,08,14,18,05,24.70
2020,08,14,18,06,24.70
2020,08,14,18,07,24.60
2020,08,14,18,08,24.60
2020,08,14,18,09,24.60
2020,08,14,18,10,24.60
2020,08,14,18,11,24.60
2020,08,14,18,12,24.60
2020,08,14,18,13,24.60
2020,08,14,18,14,24.60
2020,08,14,18,15,24.60
2020,08,14,18,16,24.70
2020,08,14,18,17,24.70
2020,08,14,18,18,24.70
2020,08,14,18,19,24.80
2020,08,14,18,20,24.80
2020,08,14,18,21,24.80
2020,08,14,18,22,24.80
2020,08,14,18,23,24.70
2020,08,14,18,24,24.70
2020,08,14,18,25,24.70
2020,08,14,18,26,24.70
2020,08,14,18,27,24.60
2020,08,14,18,28,24.50
2020,08,14,18,29,24.50
2020,08,14,18,30,24.40
2020,08,14,18,31,24.40
2020,08,14,18,32,24.40
2020,08,14,18,33,24.40
2020,08,14,18,34,24.40
2020,08,14,18,35,24.40
2020,08,14,18,36,24.40
2020,08,14,18,37,24.40
2020,08,14,18,38,24.40
2020,08,14,18,39,24.40
2020,08,14,18,40,24.40
2020,08,14,18,41,24.40
2020,08,14,18,42,24.40
2020,08,14,18,43,24.30
2020,08,14,18,44,24.30
2020,08,14,18,45,24.30
2020,08,14,18,46,24.30
2020,08,14,18,47,24.30
2020,08,14,18,48,24.30
2020,08,14,18,49,24.30
2020,08,14,18,50,24.30
2020,08,14,18,51,24.30
2020,08,14,18,52,24.30
2020,08,14,18,53,24.20
2020,08,14,18,54,24.20
2020,08,14,18,55,24.20
2020,08,14,18,56,24.10
2020,08,14,18,57,24.10
2020,08,14,18,58,24.10
2020,08,14,18,59,24.10
2020,08,14,19,00,24.10
2020,08,14,19,01,24.20
2020,08,14,19,02,24.20
2020,08,14,19,03,24.20
2020,08,14,19,04,24.20
2020,08,14,19,05,24.30
2020,08,14,19,06,24.30
2020,08,14,19,07,24.30
2020,08,14,19,08,24.30
2020,08,14,19,09,24.30
2020,08,14,19,10,24.30
2020,08,14,19,11,24.30
2020,08,14,19,12,24.30
2020,08,14,19,13,24.30
2020,08,14,19,14,24.20
2020,08,14,19,15,24.10
2020,08,14,19,16,24.10
2020,08,14,19,17,24.10
2020,08,14,19,18,24.00
2020,08,14,19,19,24.00
2020,08,14,19,20,23.90
2020,08,14,19,21,23.90
2020,08,14,19,22,23.90
2020,08,14,19,23,23.80
2020,08,14,19,24,23.80
2020,08,14,19,25,23.80
2020,08,14,19,26,23.80
2020,08,14,19,27,23.70
2020,08,14,19,28,23.70
2020,08,14,19,29,23.70
2020,08,14,19,30,23.60
2020,08,14,19,31,23.60
2020,08,14,19,32,23.60
2020,08,14,19,33,23.60
2020,08,14,19,34,23.60
2020,08,14,19,35,23.60
2020,08,14,19,36,23.50
2020,08,14,19,37,23.50
2020,08,14,19,38,23.50
2020,08,14,19,39,23.40
2020,08,14,19,40,23.50
2020,08,14,19,41,23.50
2020,08,14,19,42,23.40
2020,08,14,19,43,23.40
2020,08,14,19,44,23.30
2020,08,14,19,45,23.30
2020,08,14,19,46,23.20
2020,08,14,19,47,23.20
2020,08,14,19,48,23.10
2020,08,14,19,49,23.00
2020,08,14,19,50,22.90
2020,08,14,19,51,22.90
2020,08,14,19,52,22.80
2020,08,14,19,53,22.80
2020,08,14,19,54,22.80
2020,08,14,19,55,22.80
2020,08,14,19,56,22.70
2020,08,14,19,57,22.70
2020,08,14,19,58,22.60
2020,08,14,19,59,22.60
2020,08,14,20,00,22.50
2020,08,14,20,01,22.40
2020,08,14,20,02,22.40
2020,08,14,20,03,22.40
2020,08,14,20,04,22.30
2020,08,14,20,05,22.30
2020,08,14,20,06,22.20
2020,08,14,20,07,22.20
2020,08,14,20,08,22.10
2020,08,14,20,09,22.10
2020,08,14,20,10,22.10
2020,08,14,20,11,22.00
2020,08,14,20,12,21.90
2020,08,14,20,13,21.90
2020,08,14,20,14,21.90
2020,08,14,20,15,21.90
2020,08,14,20,16,21.80
2020,08,14,20,17,21.80
2020,08,14,20,18,21.80
2020,08,14,20,19,21.80
2020,08,14,20,20,21.70
2020,08,14,20,21,21.70
2020,08,14,20,22,21.60
2020,08,14,20,23,21.60
2020,08,14,20,24,21.50
2020,08,14,20,25,21.50
2020,08,14,20,26,21.40
2020,08,14,20,27,21.30
2020,08,14,20,28,21.30
2020,08,14,20,29,21.20
2020,08,14,20,30,21.10
2020,08,14,20,31,21.10
2020,08,14,20,32,21.00
2020,08,14,20,33,20.90
2020,08,14,20,34,20.80
2020,08,14,20,35,20.80
2020,08,14,20,36,20.70
2020,08,14,20,37,20.70
2020,08,14,20,38,20.60
2020,08,14,20,39,20.60
2020,08,14,20,40,20.50
2020,08,14,20,41,20.50
2020,08,14,20,42,20.40
2020,08,14,20,43,20.30
2020,08,14,20,44,20.30
2020,08,14,20,45,20.20
2020,08,14,20,46,20.10
2020,08,14,20,47,20.00
2020,08,14,20,48,20.00
2020,08,14,20,49,19.90
2020,08,14,20,50,19.90
2020,08,14,20,51,19.80
2020,08,14,20,52,19.80
2020,08,14,20,53,19.80
2020,08,14,20,54,19.80
2020,08,14,20,55,19.70
2020,08,14,20,56,19.70
2020,08,14,20,57,19.70
2020,08,14,20,58,19.70
2020,08,14,20,59,19.70
2020,08,14,21,00,19.60
2020,08,14,21,01,19.60
2020,08,14,21,02,19.60
2020,08,14,21,03,19.60
2020,08,14,21,04,19.50
2020,08,14,21,05,19.50
2020,08,14,21,06,19.50
2020,08,14,21,07,19.50
2020,08,14,21,08,19.40
2020,08,14,21,09,19.40
2020,08,14,21,10,19.40
2020,08,14,21,11,19.40
2020,08,14,21,12,19.40
2020,08,14,21,13,19.30
2020,08,14,21,14,19.30
2020,08,14,21,15,19.30
2020,08,14,21,16,19.30
2020,08,14,21,17,19.30
2020,08,14,21,18,19.30
2020,08,14,21,19,19.20
2020,08,14,21,20,19.20
2020,08,14,21,21,19.20
2020,08,14,21,22,19.20
2020,08,14,21,23,19.20
2020,08,14,21,24,19.20
2020,08,14,21,25,19.20
2020,08,14,21,26,19.10
2020,08,14,21,27,19.10
2020,08,14,21,28,19.10
2020,08,14,21,29,19.10
2020,08,14,21,30,19.10
2020,08,14,21,31,19.10
2020,08,14,21,32,19.10
2020,08,14,21,33,19.10
2020,08,14,21,34,19.00
2020,08,14,21,35,19.00
2020,08,14,21,36,19.00
2020,08,14,21,37,19.00
2020,08,14,21,38,18.90
2020,08,14,21,39,18.90
2020,08,14,21,40,18.90
2020,08,14,21,41,18.90
2020,08,14,21,42,18.90
2020,08,14,21,43,18.80
2020,08,14,21,44,18.80
2020,08,14,21,45,18.80
2020,08,14,21,46,18.80
2020,08,14,21,47,18.80
2020,08,14,21,48,18.80
2020,08,14,21,49,18.70
2020,08,14,21,50,18.70
2020,08,14,21,51,18.70
2020,08,14,21,52,18.70
2020,08,14,21,53,18.70
2020,08,14,21,54,18.60
2020,08,14,21,55,18.60
2020,08,14,21,56,18.60
2020,08,14,21,57,18.60
2020,08,14,21,58,18.60
2020,08,14,21,59,18.60
2020,08,14,22,00,18.60
2020,08,14,22,01,18.50
2020,08,14,22,02,18.50
2020,08,14,22,03,18.50
2020,08,14,22,04,18.50
2020,08,14,22,05,18.40
2020,08,14,22,06,18.40
2020,08,14,22,07,18.40
2020,08,14,22,08,18.40
2020,08,14,22,09,18.40
2020,08,14,22,10,18.40
2020,08,14,22,11,18.30
2020,08,14,22,12,18.30
2020,08,14,22,13,18.30
2020,08,14,22,14,18.30
2020,08,14,22,15,18.30
2020,08,14,22,16,18.30
2020,08,14,22,17,18.20
2020,08,14,22,18,18.20
2020,08,14,22,19,18.20
2020,08,14,22,20,18.20
2020,08,14,22,21,18.20
2020,08,14,22,22,18.20
2020,08,14,22,23,18.20
2020,08,14,22,24,18.20
2020,08,14,22,25,18.10
2020,08,14,22,26,18.10
2020,08,14,22,27,18.10
2020,08,14,22,28,18.10
2020,08,14,22,29,18.10
2020,08,14,22,30,18.00
2020,08,14,22,31,18.00
2020,08,14,22,32,18.00
2020,08,14,22,33,17.90
2020,08,14,22,34,17.90
2020,08,14,22,35,17.90
2020,08,14,22,36,17.90
2020,08,14,22,37,17.90
2020,08,14,22,38,17.80
2020,08,14,22,39,17.80
2020,08,14,22,40,17.80
2020,08,14,22,41,17.80
2020,08,14,22,42,17.80
2020,08,14,22,43,17.70
2020,08,14,22,44,17.70
2020,08,14,22,45,17.70
2020,08,14,22,46,17.60
2020,08,14,22,47,17.60
2020,08,14,22,48,17.60
2020,08,14,22,49,17.50
2020,08,14,22,50,17.50
2020,08,14,22,51,17.40
2020,08,14,22,52,17.40
2020,08,14,22,53,17.40
2020,08,14,22,54,17.40
2020,08,14,22,55,17.30
2020,08,14,22,56,17.30
2020,08,14,22,57,17.30
2020,08,14,22,58,17.30
2020,08,14,22,59,17.30
2020,08,14,23,00,17.20
2020,08,14,23,01,17.20
2020,08,14,23,02,17.20
2020,08,14,23,03,17.20
2020,08,14,23,04,17.20
2020,08,14,23,05,17.10
2020,08,14,23,06,17.10
2020,08,14,23,07,17.10
2020,08,14,23,08,17.10
2020,08,14,23,09,17.10
2020,08,14,23,10,17.10
2020,08,14,23,11,17.00
2020,08,14,23,12,17.00
2020,08,14,23,13,17.00
2020,08,14,23,14,17.00
2020,08,14,23,15,17.00
2020,08,14,23,16,16.90
2020,08,14,23,17,16.90
2020,08,14,23,18,16.90
2020,08,14,23,19,16.90
2020,08,14,23,20,16.90
2020,08,14,23,21,16.90
2020,08,14,23,22,16.90
2020,08,14,23,23,16.90
2020,08,14,23,24,16.90
2020,08,14,23,25,16.80
2020,08,14,23,26,16.80
2020,08,14,23,27,16.80
2020,08,14,23,28,16.80
2020,08,14,23,29,16.80
2020,08,14,23,30,16.80
2020,08,14,23,31,16.80
2020,08,14,23,32,16.80
2020,08,14,23,33,16.80
2020,08,14,23,34,16.70
2020,08,14,23,35,16.70
2020,08,14,23,36,16.70
2020,08,14,23,37,16.70
2020,08,14,23,38,16.70
2020,08,14,23,39,16.70
2020,08,14,23,40,16.60
2020,08,14,23,41,16.60
2020,08,14,23,42,16.60
2020,08,14,23,43,16.60
2020,08,14,23,44,16.60
2020,08,14,23,45,16.50
2020,08,14,23,46,16.50
2020,08,14,23,47,16.50
2020,08,14,23,48,16.40
2020,08,14,23,49,16.40
2020,08,14,23,50,16.40
2020,08,14,23,51,16.40
2020,08,14,23,52,16.30
2020,08,14,23,53,16.30
2020,08,14,23,54,16.30
2020,08,14,23,55,16.30
2020,08,14,23,56,16.30
2020,08,14,23,57,16.30
2020,08,14,23,58,16.30
2020,08,14,23,59,16.20
